Pasco, WA
on Sunday, February 10, 2013

Sunday
Previous Day Next Day
Daily Summary
 ActualAverageRecord
Temperature
Mean Temperature °F 38°F  
Max Temperature 51°F 47°F 60°F (1990)
Min Temperature 23°F 29°F 18°F (2001)
Degree Days
Heating Degree Days 28 27  
Month to date heating degree days 262 276  
Since 1 July heating degree days 3173 3427  
Cooling Degree Days 0 0  
Month to date cooling degree days 0 0  
Year to date cooling degree days 0 0  
Moisture
Dew Point 26°F   
Average Humidity 67    
Maximum Humidity 92    
Minimum Humidity 42    
Precipitation
Precipitation 0.00 in in 0.36 in (1961)
Month to date precipitation T  
Year to date precipitation 0.36  
Snow
Snow 0.00 in in in ()
Snow Depth 0.00 in   
Wind
Wind Speed 3 mph   
Max Wind Speed 7 mph   
Max Gust Speed 10 mph   
Visibility 10 miles   
Events     

Key: T is trace of precipitation, MM is missing value
Source: NWS Daily Summary
Time(PST)TemperatureDew PointHumidity Pressure Visibility Wind DirectionWind SpeedGust SpeedPrecipitationEvents Conditions
12:53 AM 25.0°F 23.0°F 92% 30.26 in 10.0 miles East 5.8 mph - N/A   Clear
1:53 AM 27.0°F 24.1°F 89% 30.27 in 10.0 miles Calm Calm - N/A   Clear
2:53 AM 24.1°F 21.9°F 91% 30.27 in 8.0 miles North 4.6 mph - N/A   Clear
3:53 AM 24.1°F 21.9°F 91% 30.28 in 10.0 miles North 5.8 mph - N/A   Clear
4:00 AM 23.0°F 21.2°F 93% 30.27 in 10.0 miles NNE 3.5 mph - N/A   Partly Cloudy
4:53 AM 24.1°F 21.0°F 88% 30.30 in 10.0 miles Calm Calm - N/A   Clear
5:53 AM 24.1°F 21.0°F 88% 30.30 in 10.0 miles Calm Calm - N/A   Clear
6:53 AM 24.1°F 21.9°F 91% 30.31 in 10.0 miles North 4.6 mph - N/A   Clear
7:53 AM 25.0°F 21.9°F 88% 30.32 in 10.0 miles Calm Calm - N/A   Clear
8:53 AM 30.9°F 27.0°F 85% 30.33 in 10.0 miles Calm Calm - N/A   Clear
9:53 AM 35.1°F 30.0°F 82% 30.34 in 10.0 miles Calm Calm - N/A   Clear
10:53 AM 41.0°F 30.9°F 67% 30.33 in 10.0 miles Calm Calm - N/A   Clear
11:53 AM 45.0°F 30.0°F 56% 30.31 in 10.0 miles SW 3.5 mph - N/A   Clear
12:53 PM 48.0°F 30.0°F 50% 30.29 in 10.0 miles Calm Calm - N/A   Clear
1:53 PM 48.9°F 28.9°F 46% 30.27 in 10.0 miles Calm Calm - N/A   Partly Cloudy
2:53 PM 50.0°F 28.9°F 44% 30.26 in 10.0 miles Calm Calm - N/A   Partly Cloudy
3:53 PM 48.9°F 28.9°F 46% 30.26 in 10.0 miles East 5.8 mph - N/A   Clear
4:53 PM 46.0°F 30.0°F 54% 30.25 in 10.0 miles East 3.5 mph - N/A   Clear
5:53 PM 44.1°F 28.9°F 55% 30.25 in 10.0 miles SE 3.5 mph - N/A   Clear
6:53 PM 35.1°F 28.0°F 76% 30.26 in 10.0 miles Calm Calm - N/A   Clear
8:53 PM 30.9°F 27.0°F 85% 30.26 in 10.0 miles Calm Calm - N/A   Clear
9:53 PM 27.0°F 24.1°F 89% 30.26 in 10.0 miles NNE 3.5 mph - N/A   Clear
10:53 PM 26.1°F 25.0°F 96% 30.26 in 10.0 miles Calm Calm - N/A   Clear
11:53 PM 26.1°F 24.1°F 92% 30.25 in 10.0 miles Calm Calm - N/A   Clear
Moon Phase
Feb. 10 Feb. 17 Feb. 25 Mar. 04 Mar. 11
Sunrise:07:06 AM (PST) Moon Rise:06:54 AM (PST)2/10
Sunset:05:15 PM (PST) Moon Set:06:17 PM (PST)2/10

Copyright © 2014 The Weather Underground, Inc.